Regional Weather Roundup
Issued by NWS Wakefield, VA

Home | Current Version | Previous Version | Text Only | Print | Product List | Glossary Off
Versions: 1 2 3 4 5 6 7 8 9 10 11 12 13 14 15 16 17 18 19 20 21 22 23 24 25 26 27 28
000 ASUS41 KAKQ 282015 RWRAKQ REGIONAL WEATHER ROUNDUP NATIONAL WEATHER SERVICE WAKEFIELD VA 400 PM EDT TUE JUN 28 2016 Note: "fair" indicates few or no clouds below 12,000 feet with no significant weather and/or obstructions to visibility. * = Denotes station may not report precipitation (e.g., rain,snow,etc.), thunder or fog. VAZ042-051-052>054-056-282100- NORTHERN VIRGINIA CITY SKY/WX TMP DP RH WIND PRES REMARKS WASH NATIONAL PTSUNNY 86 75 69 S12 29.86F HX 95 DULLES FAIR 89 68 49 S8 29.85F FORT BELVOIR FAIR 85 74 69 SE9 29.86F QUANTICO PTSUNNY 84 74 71 S9 29.87F FREDERICKSBRG* N/A 88 70 54 S5 29.86F STAFFORD* FAIR 86 69 57 CALM 29.92F WARRENTON FAIR 89 64 43 S7 29.87F CULPEPER* FAIR 88 71 56 S6 29.87F MANASSAS* SUNNY 88 72 58 SW6 29.86F LEESBURG* FAIR 91 70 49 S12G21 29.86F HX 97 WINCHESTER HVY RAIN 72 66 83 NE5G37 29.90R VSB 1 FRONT ROYAL* FAIR 86 64 48 S7 29.86F LURAY* FAIR 88 61 40 S8 29.88F $$ VAZ048-049-060>072-079>083-282100- CENTRAL AND SOUTH CENTRAL VIRGINIA CITY SKY/WX TMP DP RH WIND PRES REMARKS RICHMOND CLOUDY 82 73 74 SW14 29.91F CHESTERFIELD* FAIR 81 64 57 SW10 29.93F PETERSBURG* CLOUDY 79 77 93 S6 29.94F HANOVER FAIR 84 70 62 VRB6 29.91F TAPPAHANNOCK* FAIR 84 74 73 SW7 29.91S QUINTON* FAIR 80 75 85 SW7 29.91F CHARLOTTSVILLE FAIR 88 66 48 S8 29.89F GORDONSVILLE* FAIR 88 69 54 S6 29.88F ORANGE* FAIR 88 63 42 SE7 29.90F LOUISA* FAIR 88 73 62 S5 29.89F HX 96 BUMPASS* MOCLDY 84 73 70 CALM 29.89F FARMVILLE* FAIR 82 74 77 S9 29.92S CREWE* MOCLDY 80 76 86 SW7 29.94F FORT PICKETT* MOCLDY 79 75 89 SW12 29.95F CHASE CITY* FAIR 77 73 87 CALM 29.96F CLARKSVILLE* CLOUDY 73 72 94 SW7 29.97S SOUTH HILL* CLOUDY 73 71 92 S6 30.03R LAWRENCEVILLE* CLOUDY 74 73 95 SW8 29.96F EMPORIA* N/A 73 70 88 S6 29.97F $$ VAZ088>098-282100- SOUTHEAST VIRGINIA CITY SKY/WX TMP DP RH WIND PRES REMARKS NORFOLK HVY RAIN 73 70 90 SW15G30 29.96S FOG VIRGINIA BEACH LGT RAIN 75 70 83 W21G31 29.95S NORFOLK NAVAL LGT RAIN 73 70 90 SW9 29.97S FOG WEST POINT* CLOUDY 78 74 86 S7 29.92F SALUDA* CLOUDY 78 75 90 S5 29.90F NEWPORT NEWS LGT RAIN 74 72 93 S15 29.94S LANGLEY AFB LGT RAIN 74 72 94 S17 29.94S FORT EUSTIS PTSUNNY 75 75 98 SW9 29.92F WILLIAMSBURG* FAIR 79 73 83 S8 29.94S HR EXEC AP* CLOUDY 73 70 88 SW6 29.98F FRANKLIN* LGT RAIN 72 69 91 S9 29.97S US460-WAKEFLD LGT RAIN 75 71 87 S5 29.95S $$ VAZ020-022-025-037-045-282100- WEST CENTRAL AND SOUTHWEST VIRGINIA CITY SKY/WX TMP DP RH WIND PRES REMARKS STAUNTON* FAIR 84 63 49 SE7 29.93F WAYNESBORO* FAIR 85 60 43 S3 29.94F HOT SPRINGS VA PTSUNNY 78 60 54 W6G20 30.07F LYNCHBURG FAIR 84 67 56 S8 29.96F DANVILLE FAIR 80 70 71 SE6 29.95F SOUTH BOSTON* MOCLDY 78 73 84 S10 29.96F MARTINSVILLE FAIR 85 64 47 CALM 29.98F ROANOKE PTSUNNY 84 68 58 SW6 29.96F BLACKSBURG PTSUNNY 84 65 52 W8 30.04F DUBLIN* FAIR 85 60 43 NW8 30.03S MARION* FAIR 82 61 49 W5 30.08F HILLSVILLE* FAIR 81 61 51 NW13 30.05S RICHLANDS* FAIR 81 61 51 NW5 30.07F WISE* FAIR 81 52 36 NW5 30.10F ABINGDON* FAIR 85 59 41 N10G16 30.05F $$ MDZ021>025-VAZ099-100-282100- SOUTHERN MARYLAND AND THE DELMARVA PENINSULA CITY SKY/WX TMP DP RH WIND PRES REMARKS PATUXENT RIVER CLOUDY 77 72 84 SE10 29.89F BAY BRIDGE APT CLOUDY 81 73 78 S13 29.88S LEONARDTOWN CLOUDY 79 70 73 SE6 29.90F DOVER PTSUNNY 79 75 86 S7 29.87F GEORGETOWN CLOUDY 77 71 82 S10 29.91S EASTON PTSUNNY 82 73 74 SW9 29.92F CAMBRIDGE CLOUDY 77 72 83 S6 29.89F SALISBURY CLOUDY 75 71 87 S8 29.90F OCEAN CITY PTSUNNY 74 68 81 SW8 29.91F WALLOPS ISLAND FAIR 73 69 87 S8 29.93S ACCOMACK* DRIZZLE 77 72 83 CALM 29.92F $$ NCZ012>017-030>032-282100- NORTH CENTRAL AND EASTERN NORTH CAROLINA CITY SKY/WX TMP DP RH WIND PRES REMARKS ROANOKE RAPIDS LGT RAIN 72 70 94 W8 29.97F RALEIGH LGT RAIN 72 69 90 S10 29.97F ELIZABETH CITY LGT RAIN 75 69 81 W12 29.96R AHOSKIE* RAIN 71 69 95 CALM 29.98F EDENTON* PTSUNNY 81 68 65 NW7 29.96F CURRITUCK* LGT RAIN 77 74 91 W8 29.97R KILL DEVIL HLS LGT RAIN 80 69 69 CALM 29.94S MANTEO PTSUNNY 82 74 77 S14 29.95S CAPE HATTERAS CLOUDY 82 70 66 S7 29.96S TARBORO* LGT RAIN 75 73 92 NW5 29.99S GOLDSBORO LGT RAIN 73 73 100 NW7 29.95F WASHINGTON MOSUNNY 80 72 76 W5 29.96R GREENVILLE LGT RAIN 77 73 88 NW7 30.00R NEW BERN LGT RAIN 83 71 67 SW3 29.96S WILMINGTON CLOUDY 76 72 87 CALM 29.94F $$ VAZ048-282100- ELSEWHERE CITY SKY/WX TMP DP RH WIND PRES REMARKS HARRISBURG PA TSTM 74 66 76 NW28G38 29.87R VSB 3/4 BALTIMORE CLOUDY 83 72 69 VRB6 29.85F ANNAPOLIS CLOUDY 79 72 79 S12 29.87F ANDREWS AFB FAIR 82 74 76 SE7 29.86F PHILADELPHIA CLOUDY 82 71 69 S9 29.86F HENDERSON NC CLOUDY 70 68 91 SW6 29.98F GREENSBORO CLOUDY 83 65 54 VRB5 29.96F ROCKY MOUNT CLOUDY 74 71 91 CALM 29.98F $$ VAZ100-282100- MARINE STATION/POSITION TIME TEMP WIND PRES WAVE SWELL AIR SEA DIR/SP/G HT/PER HT/PER (UTC) (F) (DEG/KT/KT) (MB) (FT/S) (FT/S) BRANDYWINE LGT 1900 70 180/ 12/ 13 N/A CAPE MAY NJ 1900 73 73 180/ 7/ 10 1012.4F LEWES DE 1900 76 70 170/ 9/ 11 1012.5F 15NM E FENWICK I 1950 72 71 1013.2F 2/ 8 OCEAN-CITY-INLET 1900 72 70 190/ 5/ 7 1013.3R WACHAPREAGUE VA 1900 77 79 230/ 5/ 7 1013.3S THOMAS POINT MD 2000 76 77 170/ 13/ 14 1012.8F GOOSES REEF MD 2000 77 78 170/ 10/ 12 1012.9F 1 COVE POINT MD 1900 75 180/ 6/ 8 1013.1F SOLOMONS ISLAND 1900 76 77 110/ 5/ 8 N/A BISHOPS HEAD MD 1900 76 78 170/ 9/ 10 1013.1F PINEY POINT MD 1900 150/ 3/ 3 N/A POTOMAC MD 2000 78 78 150/ 6/ 6 1011.3F 0 CAMBRIDGE MD 1900 77 78 170/ 3/ 5 1011.7F LEWISETTA VA 1900 77 76 100/ 6/ 7 1012.3F RAPPAHANNOCK LGT 1900 210/ 16/ 17 1013.8F STINGRAY PT 2000 78 78 220/ 12/ 17 1013.1F 1/ 2 YORK RVR RNG VA 1900 75 220/ 17/ 21 1012.8F YORKTOWN VA 1900 75 77 220/ 9/ 13 1013.3R JAMESTOWN VA 2000 77 210/ 12/ 16 N/A DOMINION TERM VA 1900 74 240/ 7/ 8 1014.3R KIPTOPEKE VA 1900 77 240/ 17/ 23 N/A CHES BAY BRIDGE 1900 74 75 240/ 13/ 15 1014.1S CAPE HENRY VA 1900 74 260/ 6/ 10 N/A WILLOUBY STN VA 1900 73 230/ 9/ 11 1015.3R CAPE HENRY BUOY 1912 75 N/A 3/ 9 1ST LANDING BUOY 2000 74 76 230/ 21/ 25 1013.9F 2/ 3 CAPE CHARLES BUO 1926 74 N/A 2/ 9 OFFSHORE WE BUOY 1921 74 N/A 2/ 8 64NM E OF VA BCH 1950 75 73 200/ 12/ 14 1013.7S 3/ 8 3/ 8 DUCK PIER NC 1900 83 73 230/ 8/ 10 1013.3F 44056 DUCK FRF 1911 74 N/A 2/ 9 OREGON INLET NC 1900 80 79 190/ 15/ 17 1014.2F HATTERAS NC 1900 83 80 180/ 3/ 7 1014.0F DIAMOND SHLS NC 1950 81 82 190/ 8/ 10 1014.4F 3/ 9 2/ 9 CAPE LOOKOUT NC 2000 81 210/ 6/ 7 1013.8S $$

USA.gov is the U.S. government's official web portal to all federal, state and local government web resources and services.